#timestamp,LO_Frequency,Hit,StdDev 
1567411215.1,286047000.4,N
1567411216.0,286047000.4,N
1567411235.8,286046994.9,N
1567411255.6,286046996.6,N
1567411275.5,286046996.1,N
1567411295.3,286046994.0,N
1567411315.2,286046992.6,N
1567411335.9,286046998.0,N
1567411355.7,286046995.2,N
1567411375.6,286046994.0,N
1567411395.4,286046992.1,N
1567411415.2,286046999.2,N
1567411435.1,286046999.7,N
1567411436.0,286046999.7,N
1567411455.8,286046996.5,N
1567411475.7,286046995.7,N
1567411495.5,286047001.0,N
1567411515.3,286046995.7,N
1567411535.2,286046996.4,N
1567411555.0,286046990.2,Y
1567411555.9,286046990.2,P
1567411575.7,286046996.2,N
1567411595.6,286047011.9,P
1567411615.4,286046998.3,N
1567411635.3,286047000.3,N
1567411655.1,286047006.0,N
1567411656.0,286047006.0,N
1567411675.8,286047004.0,N
1567411695.7,286047005.6,N
1567411715.5,286047003.6,N
1567411735.3,286047004.1,N
1567411755.2,286046998.8,N
1567411775.0,286046999.6,N
1567411775.9,286046999.6,N
1567411795.8,286047002.6,N
1567411815.6,286047003.4,N
1567411835.4,286047002.2,N
1567411855.3,286047000.4,N
1567411875.1,286046999.7,N
1567411895.9,286046994.9,N
1567411915.7,286046992.5,N
1567411935.5,286046992.5,N
1567411955.4,286046992.7,N
1567411975.2,286046992.1,N
1567411995.0,286046992.9,N
1567411996.0,286046992.9,N
1567412015.8,286046998.0,N
1567412035.6,286046993.7,N
1567412055.5,286046994.3,N
1567412075.3,286046992.4,N
1567412095.1,286046992.1,N
1567412115.9,286046999.3,N
1567412135.7,286046994.9,N
1567412155.6,286046996.0,N
1567412175.4,286046994.3,N
1567412195.2,286046994.4,N
1567412215.1,286046993.5,N
1567412216.0,286046993.5,N
1567412235.8,286046993.6,N
1567412255.6,286046994.7,N
1567412275.5,286046995.6,N
1567412295.3,286046992.7,N
1567412315.2,286046992.0,N
1567412335.9,286046997.9,N
1567412355.7,286046999.2,N
1567412375.6,286046997.5,N
1567412395.4,286046990.6,Y
1567412415.2,286046995.6,P
1567412435.1,286046998.5,P
1567412436.0,286046998.5,N
1567412455.8,286046999.8,N
1567412475.7,286047005.7,Y
1567412495.5,286047003.0,P
1567412515.3,286047002.0,N
1567412535.2,286047002.2,N
1567412555.0,286046998.7,N
1567412555.9,286046998.7,N
1567412575.8,286046997.8,N
1567412595.6,286047000.2,N
1567412615.4,286047002.6,N
1567412635.3,286046999.4,N
1567412685.1,286047005.6,E
1567412695.1,286047001.9,N
1567412696.0,286047001.9,P
1567412715.8,286046999.4,P
1567412735.6,286046996.4,Y
1567412755.5,286046992.2,P
1567412775.3,286046998.0,N
1567412795.1,286046992.6,N
1567412815.9,286046990.8,N
1567412835.7,286046996.1,N
1567412855.6,286046999.7,N
1567412875.4,286047001.1,N
1567412895.2,286047002.6,N
1567412915.1,286046995.2,N
1567412916.0,286046995.2,N
1567412935.8,286046997.9,N
1567412955.7,286046995.6,N
1567412975.5,286046999.1,N
1567412995.3,286046995.3,N
1567413015.2,286046996.4,N
1567413035.9,286046992.9,N
1567413055.7,286046999.4,N
1567413075.6,286047001.1,N
1567413095.4,286046995.6,N
1567413115.3,286046997.3,N
1567413135.1,286046996.0,N
1567413136.0,286046996.0,N
1567413155.8,286047001.1,N
1567413175.7,286047000.7,N
1567413195.5,286046999.4,N
1567413215.3,286046998.5,N
1567413235.2,286046996.3,N
1567413255.0,286046994.8,N
1567413255.9,286046994.8,N
1567413275.8,286046991.8,N
1567413295.6,286046988.5,Y
1567413315.4,286046995.8,P
1567413335.3,286046998.5,P
1567413355.1,286046995.7,P
1567413375.8,286046994.1,Y
1567413395.7,286046995.3,P
1567413415.5,286047002.3,P
1567413435.4,286047001.3,N
1567413455.2,286047003.7,N
1567413475.0,286047004.4,N
1567413475.9,286047004.4,N
1567413495.8,286047001.2,N
1567413515.6,286046996.9,N
1567413535.4,286047002.7,N
1567413555.3,286047002.2,N
1567413575.1,286047002.1,N
1567413595.9,286046998.3,N
1567413615.7,286046998.7,N
1567413635.5,286046998.5,N
1567413655.4,286046995.5,N
1567413675.2,286046994.2,N
1567413695.0,286046994.7,N
1567413695.9,286046994.7,N
1567413715.8,286046996.0,N
1567413735.6,286046994.2,N
1567413755.5,286046993.0,N
1567413775.3,286046991.7,N
1567413795.1,286046997.2,N
1567413815.9,286046994.4,N
1567413835.7,286046996.9,N
1567413855.5,286046999.3,N
1567413875.4,286046993.5,N
1567413895.2,286046995.0,N
1567413915.1,286047002.6,N
1567413916.0,286047002.6,N
1567413935.8,286046997.1,N
1567413955.6,286047000.6,N
1567413975.5,286047003.1,N
1567413995.3,286047004.9,N
1567414015.2,286046999.7,N
1567414035.9,286047003.3,N
1567414055.7,286047004.9,N
1567414075.6,286047000.3,N
1567414095.4,286047005.9,N
1567414115.3,286047006.0,N
1567414135.1,286047004.7,N
1567414136.0,286047004.7,N
1567414155.8,286047007.5,N
1567414175.7,286047007.6,N
1567414195.5,286047003.3,N
1567414215.3,286046998.6,N
1567414235.2,286047001.1,N
1567414255.0,286046997.0,N
1567414255.9,286046997.0,N
1567414275.8,286046997.8,N
1567414295.6,286046997.9,N
1567414315.4,286046995.6,N
1567414335.3,286046998.9,N
1567414355.1,286047001.0,N
1567414375.9,286047000.8,N
1567414395.7,286046999.4,N
1567414415.5,286046997.2,N
1567414435.4,286046997.0,N
1567414455.2,286046998.6,N
1567414475.0,286046999.7,N
1567414475.9,286046999.7,N
1567414495.8,286047000.1,N
1567414515.6,286046994.9,N
1567414535.5,286046992.1,N
1567414555.3,286046990.5,N
1567414575.1,286046997.6,N
1567414595.9,286046998.0,N
1567414615.7,286046995.4,N
1567414635.5,286046996.6,N
1567414655.4,286047001.1,N
1567414675.2,286046996.8,N
1567414695.1,286046999.5,N
1567414696.0,286046999.5,N
1567414715.8,286046996.5,N
1567414735.6,286046999.0,N
1567414755.5,286046995.2,N
1567414775.3,286046996.5,N
1567414795.1,286046994.4,N
